weather.gov     
National Weather Service

Terminal Aerodrome Forecast
NWS Homepage
This page is being discontinued on March 12, 2014.
The same data is available at this site. Please update your bookmarks.
Thank you, and we apologize for the inconvenience.
Please send an email to SR-SRH.Webmaster@noaa.gov with any concerns.


Current Version
Previous Version:    01  02  03  04  05  06  07  08  09  10  11  12  13  14  15  16  17  18  19  20  21  22  23  24  25  26  27  28  29  30  
   31  32  33  
[Printable]
928
FTUS41 KBOX 020522
TAFFMH
TAF
KFMH 020522Z 0206/0306 04013G21KT 3SM RA BR OVC010
     FM021500 04017G24KT P6SM OVC015
     FM021800 04015G24KT P6SM OVC025
     FM022100 04014KT P6SM BKN050
     FM030300 04008KT P6SM SCT090
      AMD NOT SKED=




928
FTUS41 KBOX 020522
TAFFMH
TAF
KFMH 020522Z 0206/0306 04013G21KT 3SM RA BR OVC010
     FM021500 04017G24KT P6SM OVC015
     FM021800 04015G24KT P6SM OVC025
     FM022100 04014KT P6SM BKN050
     FM030300 04008KT P6SM SCT090
      AMD NOT SKED=


U.S. Dept. of Commerce
NOAA National Weather Service
1325 East West Highway
Silver Spring, MD 20910
E-mail: w-nws.webmaster@noaa.gov
Page last modified: May 16, 2007
NATIONAL WEATHER SERVICE: for Safety, for Work, for Fun - FOR LIFE